Location: Newark
(37.9800°N, 91.3000°W)
Time: 16:00:01
(UTC+00:00)

ISS - Pass Details

Date: 28 October 2019
Orbit: 412 x 421 km, 51.6° (Epoch: 13 November)

Event Time Altitude Azimuth Distance (km) Brightness Sun altitude
Exits shadow 10:55:24 34° 342° (NNW) 710 -2.8 -18.5°
Drops below altitude 10° 10:58:12 10° 36° (NE) 1,506 -0.5 -18.0°
Sets 11:00:25 0° 45° (NE) 2,371 0.7 -17.5°
